Time,TemperatureF,DewpointF,PressureIn,WindDirection,WindDirectionDegrees,WindSpeedMPH,WindSpeedGustMPH,Humidity,HourlyPrecipIn,Conditions,Clouds,dailyrainin,SoftwareType,DateUTC
2013-02-16 20:09:00,3.7,-12.0,29.17,North,0,0.0,0.0,47,0.04,,---,0.00,VWS V14.01,2013-02-17 01:09:00,
2013-02-16 20:11:00,3.7,-12.0,29.17,North,0,0.0,0.0,47,0.00,,---,0.00,VWS V14.01,2013-02-17 01:11:00,
2013-02-16 20:16:00,4.1,-11.6,29.17,North,0,0.0,0.0,47,0.00,,---,0.00,VWS V14.01,2013-02-17 01:16:00,
2013-02-16 20:17:00,4.1,-11.6,29.17,North,0,0.0,0.0,47,0.00,,---,0.00,VWS V14.01,2013-02-17 01:17:00,
2013-02-16 20:23:00,4.3,-11.5,29.17,North,0,0.0,0.0,47,0.00,,---,0.00,VWS V14.01,2013-02-17 01:23:00,
2013-02-16 20:28:00,4.5,-11.3,29.17,North,0,0.0,0.0,47,0.00,,---,0.00,VWS V14.01,2013-02-17 01:28:00,
2013-02-16 20:33:00,4.5,-11.3,29.17,North,0,0.0,0.0,47,0.00,,---,0.00,VWS V14.01,2013-02-17 01:33:00,
2013-02-16 20:38:00,4.6,-11.1,29.17,North,0,0.0,0.0,47,0.00,,---,0.00,VWS V14.01,2013-02-17 01:38:00,
2013-02-16 20:44:00,5.0,-10.8,29.17,North,0,0.0,0.0,47,0.00,,---,0.00,VWS V14.01,2013-02-17 01:44:00,
2013-02-16 20:49:00,5.0,-10.8,29.17,North,0,0.0,0.0,47,0.00,,---,0.00,VWS V14.01,2013-02-17 01:49:00,
2013-02-16 20:55:00,5.4,-10.5,29.17,North,0,0.0,0.0,47,0.00,,---,0.00,VWS V14.01,2013-02-17 01:55:00,
2013-02-16 21:00:00,5.4,-10.5,29.17,North,0,0.0,0.0,47,0.00,,---,0.00,VWS V14.01,2013-02-17 02:00:00,
2013-02-16 21:06:00,5.5,-10.3,29.17,North,0,0.0,0.0,47,0.00,,---,0.00,VWS V14.01,2013-02-17 02:06:00,
2013-02-16 21:11:00,5.7,-10.1,29.14,North,0,0.0,0.0,47,0.00,,---,0.00,VWS V14.01,2013-02-17 02:11:00,
2013-02-16 21:16:00,5.9,-10.0,29.14,North,0,0.0,0.0,47,0.00,,---,0.00,VWS V14.01,2013-02-17 02:16:00,
2013-02-16 21:21:00,6.1,-9.8,29.14,North,0,0.0,0.0,47,0.00,,---,0.00,VWS V14.01,2013-02-17 02:21:00,
2013-02-16 21:26:00,6.1,-9.8,29.14,North,0,0.0,0.0,47,0.00,,---,0.00,VWS V14.01,2013-02-17 02:26:00,
2013-02-16 21:31:00,6.3,-9.6,29.14,North,0,0.0,0.0,47,0.00,,---,0.00,VWS V14.01,2013-02-17 02:31:00,
2013-02-16 21:36:00,6.3,-9.6,29.14,North,0,0.0,0.0,47,0.00,,---,0.00,VWS V14.01,2013-02-17 02:36:00,
2013-02-16 21:42:00,6.3,-9.6,29.14,North,0,0.0,0.0,47,0.00,,---,0.00,VWS V14.01,2013-02-17 02:42:00,
2013-02-16 21:47:00,5.9,-10.0,29.14,North,0,0.0,0.0,47,0.00,,---,0.00,VWS V14.01,2013-02-17 02:47:00,
2013-02-16 21:53:00,5.2,-10.6,29.14,North,0,0.0,0.0,47,0.00,,---,0.00,VWS V14.01,2013-02-17 02:53:00,
2013-02-16 21:58:00,4.5,-11.3,29.14,North,0,0.0,0.0,47,0.00,,---,0.00,VWS V14.01,2013-02-17 02:58:00,
2013-02-16 22:03:00,3.7,-12.0,29.14,North,0,0.0,0.0,47,0.00,,---,0.00,VWS V14.01,2013-02-17 03:03:00,
2013-02-16 22:08:00,3.4,-12.3,29.14,North,0,0.0,0.0,47,0.00,,---,0.00,VWS V14.01,2013-02-17 03:08:00,
2013-02-16 22:13:00,2.8,-12.8,29.14,North,0,0.0,0.0,47,0.00,,---,0.00,VWS V14.01,2013-02-17 03:13:00,
2013-02-16 22:18:00,2.1,-13.5,29.14,North,0,0.0,0.0,47,0.00,,---,0.00,VWS V14.01,2013-02-17 03:18:00,
2013-02-16 22:23:00,2.1,-13.5,29.14,North,0,0.0,0.0,47,0.00,,---,0.00,VWS V14.01,2013-02-17 03:23:00,
2013-02-16 22:29:00,1.2,-14.3,29.14,North,0,0.0,0.0,47,0.00,,---,0.00,VWS V14.01,2013-02-17 03:29:00,
2013-02-16 22:34:00,0.9,-14.6,29.12,North,0,0.0,0.0,47,0.00,,---,0.00,VWS V14.01,2013-02-17 03:34:00,
2013-02-16 22:40:00,0.3,-15.1,29.12,North,0,0.0,0.0,47,0.00,,---,0.00,VWS V14.01,2013-02-17 03:40:00,
2013-02-16 22:45:00,0.0,-15.5,29.12,North,0,0.0,0.0,47,0.00,,---,0.00,VWS V14.01,2013-02-17 03:45:00,
2013-02-16 22:51:00,-0.6,-16.0,29.12,North,0,0.0,0.0,47,0.00,,---,0.00,VWS V14.01,2013-02-17 03:51:00,
2013-02-16 22:57:00,-0.9,-16.3,29.12,North,0,0.0,0.0,47,0.00,,---,0.00,VWS V14.01,2013-02-17 03:57:00,
2013-02-16 23:02:00,-1.1,-16.5,29.12,North,0,0.0,0.0,47,0.00,,---,0.00,VWS V14.01,2013-02-17 04:02:00,
2013-02-16 23:07:00,-1.5,-16.8,29.12,North,0,0.0,0.0,47,0.00,,---,0.00,VWS V14.01,2013-02-17 04:07:00,
2013-02-16 23:12:00,-1.8,-17.1,29.12,North,0,0.0,0.0,47,0.00,,---,0.00,VWS V14.01,2013-02-17 04:12:00,
2013-02-16 23:17:00,-2.0,-17.3,29.09,North,0,0.0,0.0,47,0.00,,---,0.00,VWS V14.01,2013-02-17 04:17:00,
2013-02-16 23:22:00,-2.4,-17.6,29.09,North,0,0.0,0.0,47,0.00,,---,0.00,VWS V14.01,2013-02-17 04:22:00,
2013-02-16 23:27:00,-2.6,-17.8,29.09,North,0,0.0,0.0,47,0.00,,---,0.00,VWS V14.01,2013-02-17 04:27:00,
2013-02-16 23:32:00,-2.9,-18.1,29.09,North,0,0.0,0.0,47,0.00,,---,0.00,VWS V14.01,2013-02-17 04:32:00,
2013-02-16 23:38:00,-3.1,-18.3,29.09,North,0,0.0,0.0,47,0.00,,---,0.00,VWS V14.01,2013-02-17 04:38:00,
2013-02-16 23:43:00,-3.5,-18.6,29.09,North,0,0.0,0.0,47,0.00,,---,0.00,VWS V14.01,2013-02-17 04:43:00,
2013-02-16 23:48:00,-3.5,-18.6,29.09,North,0,0.0,0.0,47,0.00,,---,0.00,VWS V14.01,2013-02-17 04:48:00,
2013-02-16 23:53:00,-3.3,-18.5,29.09,North,0,0.0,0.0,47,0.00,,---,0.00,VWS V14.01,2013-02-17 04:53:00,
2013-02-16 23:58:00,-3.1,-18.3,29.09,North,0,0.0,0.0,47,0.00,,---,0.00,VWS V14.01,2013-02-17 04:58:00,